,,PA_Meas_PMT16A,,PR_Meas_QMR101_102,,RH_Meas_QMH101,,SR_Meas_QMS101,,TA_Meas_QMH101,,GenWind,,GenWind,
time,status,PA,status,PR,status,RH,status,SR,status,TA,status,DirAvg,status,SpdAvg,
2010-10-20, 00:00:04,VALID,919.027,VALID,0,VALID,91.1837,VALID,0,VALID,19.3893,VALID,13,VALID,0.173828,
2010-10-20, 00:01:04,VALID,918.987,VALID,0,VALID,92.007,VALID,0,VALID,19.3308,VALID,13,VALID,0.114844,
2010-10-20, 00:02:04,VALID,918.958,VALID,0,VALID,92.7922,VALID,0,VALID,19.2918,VALID,13,VALID,0.453906,
2010-10-20, 00:03:04,VALID,918.934,VALID,0,VALID,93.1276,VALID,0,VALID,19.2139,VALID,13,VALID,0.4625,
2010-10-20, 00:04:04,VALID,918.882,VALID,0,VALID,93.8747,VALID,0,VALID,19.2139,VALID,13,VALID,0.613672,
2010-10-20, 00:05:04,VALID,918.834,VALID,0,VALID,94.1339,VALID,0,VALID,19.2334,VALID,13,VALID,0.549609,
2010-10-20, 00:06:04,VALID,918.82,VALID,0,VALID,94.4999,VALID,0,VALID,19.2723,VALID,13,VALID,1.13086,
2010-10-20, 00:07:04,VALID,918.77,VALID,0,VALID,95.1631,VALID,0,VALID,19.3893,VALID,13,VALID,1.14961,
2010-10-20, 00:08:04,VALID,918.796,VALID,0,VALID,94.881,VALID,0,VALID,19.4088,VALID,13,VALID,0.510547,
2010-10-20, 00:09:04,VALID,918.762,VALID,0,VALID,94.9878,VALID,0,VALID,19.4688,VALID,13,VALID,0.623047,
2010-10-20, 00:10:04,VALID,918.769,VALID,0,VALID,94.82,VALID,0,VALID,19.4493,VALID,13,VALID,0.987109,
2010-10-20, 00:11:04,VALID,918.788,VALID,0,VALID,94.6066,VALID,0,VALID,19.4283,VALID,13,VALID,0.559766,
2010-10-20, 00:12:04,VALID,918.765,VALID,0,VALID,94.3855,VALID,0,VALID,19.4283,VALID,13,VALID,0.738672,
2010-10-20, 00:13:04,VALID,918.788,VALID,0,VALID,94.5609,VALID,0,VALID,19.3893,VALID,13,VALID,0.608594,
2010-10-20, 00:14:04,VALID,918.781,VALID,0,VALID,94.9039,VALID,0,VALID,19.4298,VALID,13,VALID,0.825781,
2010-10-20, 00:15:04,VALID,918.794,VALID,0,VALID,94.7972,VALID,0,VALID,19.3893,VALID,13,VALID,0.819531,
2010-10-20, 00:16:04,VALID,918.763,VALID,0,VALID,95.125,VALID,0,VALID,19.3893,VALID,13,VALID,1.48516,
2010-10-20, 00:17:04,VALID,918.765,VALID,0,VALID,95.6281,VALID,0,VALID,19.5063,VALID,13,VALID,1.65078,
2010-10-20, 00:18:04,VALID,918.745,VALID,0,VALID,95.6891,VALID,0,VALID,19.5453,VALID,13,VALID,1.56992,
2010-10-20, 00:19:04,VALID,918.717,VALID,0,VALID,95.8416,VALID,0,VALID,19.6038,VALID,13,VALID,1.30664,
2010-10-20, 00:20:04,VALID,918.688,VALID,0,VALID,95.9483,VALID,0,VALID,19.6818,VALID,12,VALID,1.18906,
2010-10-20, 00:21:04,VALID,918.673,VALID,0,VALID,95.8797,VALID,0,VALID,19.7403,VALID,12,VALID,1.39844,
2010-10-20, 00:22:04,VALID,918.652,VALID,0,VALID,95.7349,VALID,0,VALID,19.7793,VALID,12,VALID,1.10586,
2010-10-20, 00:23:04,VALID,918.586,VALID,0,VALID,95.8721,VALID,0.107441,VALID,19.8378,VALID,12,VALID,1.38594,
2010-10-20, 00:24:04,VALID,918.561,VALID,0,VALID,95.6357,VALID,0,VALID,19.8573,VALID,3,VALID,1.76484,
2010-10-20, 00:25:04,VALID,918.588,VALID,0,VALID,95.6815,VALID,0.107441,VALID,19.9143,VALID,360,VALID,1.29922,
2010-10-20, 00:26:04,VALID,918.548,VALID,0,VALID,95.5367,VALID,0,VALID,19.9353,VALID,26,VALID,1.21406,
2010-10-20, 00:27:04,VALID,918.55,VALID,0,VALID,95.4375,VALID,0,VALID,19.9743,VALID,11,VALID,0.903516,
2010-10-20, 00:28:04,VALID,918.528,VALID,0,VALID,95.4223,VALID,0,VALID,19.9743,VALID,11,VALID,0.793359,
2010-10-20, 00:29:04,VALID,918.511,VALID,0,VALID,95.1707,VALID,0,VALID,19.9563,VALID,10,VALID,0.931641,
2010-10-20, 00:30:04,VALID,918.518,VALID,0,VALID,95.0335,VALID,0,VALID,19.9548,VALID,11,VALID,0.636328,
2010-10-20, 00:31:04,VALID,918.508,VALID,0,VALID,94.8582,VALID,0,VALID,19.9353,VALID,11,VALID,1.07383,
2010-10-20, 00:32:04,VALID,918.45,VALID,0,VALID,95.0106,VALID,0,VALID,19.9353,VALID,10,VALID,1.17813,
2010-10-20, 00:33:04,VALID,918.462,VALID,0,VALID,95.1479,VALID,0,VALID,19.9353,VALID,11,VALID,1.19492,
2010-10-20, 00:34:04,VALID,918.413,VALID,0,VALID,95.1021,VALID,0,VALID,19.9173,VALID,11,VALID,1.14102,
2010-10-20, 00:35:04,VALID,918.362,VALID,0,VALID,95.0869,VALID,0,VALID,19.8768,VALID,10,VALID,1.45234,
2010-10-20, 00:36:04,VALID,918.352,VALID,0,VALID,94.942,VALID,0,VALID,19.8573,VALID,11,VALID,1.29766,
2010-10-20, 00:37:04,VALID,918.286,VALID,0,VALID,95.1097,VALID,0,VALID,19.8768,VALID,16,VALID,1.95313,
2010-10-20, 00:38:04,VALID,918.273,VALID,0,VALID,94.9954,VALID,0.107441,VALID,19.8573,VALID,23,VALID,1.40859,
2010-10-20, 00:39:04,VALID,918.28,VALID,0,VALID,95.0183,VALID,0.107441,VALID,19.8768,VALID,23,VALID,1.20352,
2010-10-20, 00:40:04,VALID,918.267,VALID,0,VALID,94.9801,VALID,0,VALID,19.8573,VALID,23,VALID,1.6793,
2010-10-20, 00:41:04,VALID,918.269,VALID,0,VALID,95.0716,VALID,0,VALID,19.8768,VALID,22,VALID,1.16992,
2010-10-20, 00:42:04,VALID,918.274,VALID,0,VALID,94.9801,VALID,0,VALID,19.8963,VALID,22,VALID,0.915625,
2010-10-20, 00:43:04,VALID,918.231,VALID,0,VALID,94.7438,VALID,0,VALID,19.8573,VALID,22,VALID,0.552734,
2010-10-20, 00:44:04,VALID,918.182,VALID,0,VALID,94.9649,VALID,0,VALID,19.8573,VALID,5,VALID,1.51367,
2010-10-20, 00:45:04,VALID,918.186,VALID,0,VALID,95.1326,VALID,0,VALID,19.8768,VALID,22,VALID,0.835547,
2010-10-20, 00:46:04,VALID,918.18,VALID,0,VALID,95.2927,VALID,0,VALID,19.9158,VALID,21,VALID,1.38086,
2010-10-20, 00:47:04,VALID,918.159,VALID,0,VALID,95.3537,VALID,0.107441,VALID,19.9143,VALID,21,VALID,1.67266,
2010-10-20, 00:48:04,VALID,918.171,VALID,0,VALID,95.1326,VALID,0,VALID,19.9158,VALID,21,VALID,1.37812,
2010-10-20, 00:49:04,VALID,918.142,VALID,0,VALID,94.9344,VALID,0,VALID,19.9158,VALID,21,VALID,1.00859,
2010-10-20, 00:50:04,VALID,918.133,VALID,0,VALID,95.2241,VALID,0.107441,VALID,19.9548,VALID,21,VALID,0.999219,
2010-10-20, 00:51:04,VALID,918.115,VALID,0,VALID,95.3994,VALID,0,VALID,19.9548,VALID,21,VALID,0.588281,
2010-10-20, 00:52:04,VALID,918.091,VALID,0,VALID,95.0106,VALID,0,VALID,19.8963,VALID,21,VALID,0.524219,
2010-10-20, 00:53:04,VALID,918.101,VALID,0,VALID,95.0411,VALID,0,VALID,19.8768,VALID,21,VALID,1.04766,
2010-10-20, 00:54:04,VALID,918.092,VALID,0,VALID,95.186,VALID,0,VALID,19.8963,VALID,21,VALID,1.2,
2010-10-20, 00:55:04,VALID,918.111,VALID,0,VALID,95.2927,VALID,0,VALID,19.8768,VALID,21,VALID,1.08516,
2010-10-20, 00:56:04,VALID,918.096,VALID,0,VALID,95.4223,VALID,0,VALID,19.8963,VALID,20,VALID,1.47773,
2010-10-20, 00:57:04,VALID,918.068,VALID,0,VALID,95.2393,VALID,0,VALID,19.8573,VALID,20,VALID,1.07461,
2010-10-20, 00:58:04,VALID,918.052,VALID,0,VALID,95.4985,VALID,0,VALID,19.8963,VALID,20,VALID,0.972656,
2010-10-20, 00:59:04,VALID,918.017,VALID,0,VALID,95.5748,VALID,0,VALID,19.9563,VALID,20,VALID,0.579297,
2010-10-20, 01:00:04,VALID,918.032,VALID,0,VALID,95.59,VALID,0,VALID,19.9353,VALID,20,VALID,0.878125,
2010-10-20, 01:01:04,VALID,917.943,VALID,0,VALID,95.5062,VALID,0,VALID,19.9548,VALID,20,VALID,0.766797,
2010-10-20, 01:02:04,VALID,917.946,VALID,0,VALID,95.5062,VALID,0,VALID,19.9953,VALID,20,VALID,0.489062,
2010-10-20, 01:03:04,VALID,917.918,VALID,0,VALID,95.5595,VALID,0,VALID,20.0133,VALID,20,VALID,0.886328,
2010-10-20, 01:04:04,VALID,917.868,VALID,0,VALID,95.4528,VALID,0,VALID,20.0328,VALID,20,VALID,1.00703,
2010-10-20, 01:05:04,VALID,917.858,VALID,0,VALID,95.3232,VALID,0,VALID,20.0523,VALID,20,VALID,0.608594,
2010-10-20, 01:06:04,VALID,917.845,VALID,0,VALID,95.3537,VALID,0,VALID,20.0928,VALID,20,VALID,0.8125,
2010-10-20, 01:07:04,VALID,917.803,VALID,0,VALID,95.3918,VALID,0,VALID,20.1108,VALID,20,VALID,0.623047,
2010-10-20, 01:08:04,VALID,917.794,VALID,0,VALID,95.3613,VALID,0,VALID,20.1108,VALID,20,VALID,0.538672,
2010-10-20, 01:09:04,VALID,917.758,VALID,0,VALID,95.1936,VALID,0,VALID,20.0913,VALID,20,VALID,1.10508,
2010-10-20, 01:10:04,VALID,917.764,VALID,0,VALID,95.2927,VALID,0.107441,VALID,20.1303,VALID,20,VALID,0.746484,
2010-10-20, 01:11:04,VALID,917.721,VALID,0,VALID,95.1402,VALID,0,VALID,20.1108,VALID,20,VALID,0.803516,
2010-10-20, 01:12:04,VALID,917.705,VALID,0,VALID,95.0335,VALID,0.107441,VALID,20.1108,VALID,20,VALID,1.11133,
2010-10-20, 01:13:04,VALID,917.689,VALID,0,VALID,94.9725,VALID,0,VALID,20.1108,VALID,20,VALID,0.856641,
2010-10-20, 01:14:04,VALID,917.691,VALID,0,VALID,94.9039,VALID,0.107441,VALID,20.0718,VALID,20,VALID,0.734375,
2010-10-20, 01:15:04,VALID,917.664,VALID,0,VALID,95.0411,VALID,0,VALID,20.0913,VALID,20,VALID,0.633203,
2010-10-20, 01:16:04,VALID,917.657,VALID,0,VALID,94.8734,VALID,0,VALID,20.0328,VALID,20,VALID,0.335156,
2010-10-20, 01:17:04,VALID,917.628,VALID,0,VALID,95.1783,VALID,0,VALID,20.0718,VALID,20,VALID,0.888672,
2010-10-20, 01:18:04,VALID,917.595,VALID,0,VALID,95.3308,VALID,0,VALID,20.0718,VALID,20,VALID,0.866406,
2010-10-20, 01:19:04,VALID,917.583,VALID,0,VALID,95.1783,VALID,0,VALID,19.9938,VALID,20,VALID,0.588281,
2010-10-20, 01:20:04,VALID,917.561,VALID,0,VALID,95.2012,VALID,0,VALID,20.0133,VALID,20,VALID,1.05781,
2010-10-20, 01:21:04,VALID,917.536,VALID,0,VALID,95.2088,VALID,0,VALID,19.9938,VALID,20,VALID,0.75625,
2010-10-20, 01:22:04,VALID,917.494,VALID,0,VALID,95.2012,VALID,0,VALID,19.9353,VALID,20,VALID,0.981641,
2010-10-20, 01:23:04,VALID,917.489,VALID,0,VALID,95.4071,VALID,0,VALID,19.9953,VALID,20,VALID,0.861328,
2010-10-20, 01:24:04,VALID,917.437,VALID,0,VALID,95.529,VALID,0,VALID,19.9548,VALID,20,VALID,1.01289,
2010-10-20, 01:25:04,VALID,917.438,VALID,0,VALID,95.5138,VALID,0,VALID,19.9548,VALID,20,VALID,1.54219,
2010-10-20, 01:26:04,VALID,917.445,VALID,0,VALID,95.4223,VALID,0,VALID,19.9173,VALID,20,VALID,1.29023,
2010-10-20, 01:27:04,VALID,917.479,VALID,0,VALID,95.2622,VALID,0,VALID,19.8573,VALID,20,VALID,0.680078,
2010-10-20, 01:28:04,VALID,917.439,VALID,0,VALID,95.5519,VALID,0,VALID,19.8768,VALID,20,VALID,0.661719,
2010-10-20, 01:29:04,VALID,917.423,VALID,0,VALID,95.5824,VALID,0,VALID,19.8573,VALID,20,VALID,0.737109,
2010-10-20, 01:30:04,VALID,917.431,VALID,0,VALID,95.59,VALID,0,VALID,19.8573,VALID,20,VALID,0.580469,
2010-10-20, 01:31:04,VALID,917.414,VALID,0,VALID,95.4909,VALID,0,VALID,19.8183,VALID,20,VALID,0.566797,
2010-10-20, 01:32:04,VALID,917.405,VALID,0,VALID,95.5443,VALID,0,VALID,19.7988,VALID,20,VALID,0.658984,
2010-10-20, 01:33:04,VALID,917.403,VALID,0,VALID,95.59,VALID,0,VALID,19.7988,VALID,20,VALID,0.672656,
2010-10-20, 01:34:04,VALID,917.392,VALID,0,VALID,95.7272,VALID,0,VALID,19.7988,VALID,20,VALID,0.615234,
2010-10-20, 01:35:04,VALID,917.365,VALID,0,VALID,95.8111,VALID,0,VALID,19.8183,VALID,20,VALID,0.693359,
2010-10-20, 01:36:04,VALID,917.343,VALID,0,VALID,95.8873,VALID,0,VALID,19.8183,VALID,20,VALID,0.528125,
2010-10-20, 01:37:04,VALID,917.312,VALID,0,VALID,95.7044,VALID,0,VALID,19.7793,VALID,20,VALID,0.617188,
2010-10-20, 01:38:04,VALID,917.307,VALID,0,VALID,95.7958,VALID,0.107441,VALID,19.7598,VALID,20,VALID,0.567969,
2010-10-20, 01:39:04,VALID,917.292,VALID,0,VALID,95.7806,VALID,0,VALID,19.7793,VALID,20,VALID,0.38125,
2010-10-20, 01:40:04,VALID,917.287,VALID,0,VALID,95.8568,VALID,0,VALID,19.7988,VALID,20,VALID,0.924609,
2010-10-20, 01:41:04,VALID,917.273,VALID,0,VALID,95.5519,VALID,0,VALID,19.7013,VALID,20,VALID,0.591797,
2010-10-20, 01:42:04,VALID,917.255,VALID,0,VALID,95.6739,VALID,0,VALID,19.7193,VALID,20,VALID,0.313281,
2010-10-20, 01:43:04,VALID,917.258,VALID,0,VALID,95.8263,VALID,0,VALID,19.7598,VALID,20,VALID,0.572656,
2010-10-20, 01:44:04,VALID,917.232,VALID,0,VALID,95.9636,VALID,0,VALID,19.7988,VALID,20,VALID,0.599609,
2010-10-20, 01:45:04,VALID,917.217,VALID,0,VALID,96.0017,VALID,0,VALID,19.7988,VALID,19,VALID,0.553516,
2010-10-20, 01:46:04,VALID,917.212,VALID,0,VALID,95.9407,VALID,0,VALID,19.8183,VALID,20,VALID,0.847656,
2010-10-20, 01:47:04,VALID,917.169,VALID,0,VALID,95.9026,VALID,0,VALID,19.8183,VALID,19,VALID,0.822266,
2010-10-20, 01:48:04,VALID,917.191,VALID,0,VALID,95.8721,VALID,0,VALID,19.8183,VALID,20,VALID,0.615625,
2010-10-20, 01:49:04,VALID,917.165,VALID,0,VALID,95.8873,VALID,0,VALID,19.8198,VALID,19,VALID,0.515625,
2010-10-20, 01:50:04,VALID,917.117,VALID,0,VALID,95.8492,VALID,0,VALID,19.8183,VALID,19,VALID,0.760547,
2010-10-20, 01:51:04,VALID,917.13,VALID,0,VALID,95.6281,VALID,0,VALID,19.7793,VALID,19,VALID,1.12109,
2010-10-20, 01:52:04,VALID,917.131,VALID,0,VALID,95.5824,VALID,0,VALID,19.7598,VALID,19,VALID,0.753125,
2010-10-20, 01:53:04,VALID,917.116,VALID,0,VALID,95.7272,VALID,0,VALID,19.7793,VALID,19,VALID,0.333203,
2010-10-20, 01:54:04,VALID,917.078,VALID,0,VALID,95.7577,VALID,0,VALID,19.7793,VALID,19,VALID,0,
2010-10-20, 01:55:04,VALID,917.051,VALID,0,VALID,95.7196,VALID,0,VALID,19.7403,VALID,19,VALID,0.096875,
2010-10-20, 01:56:04,VALID,917.02,VALID,0,VALID,95.468,VALID,0,VALID,19.6623,VALID,19,VALID,0.98125,
2010-10-20, 01:57:04,VALID,917.025,VALID,0,VALID,95.5748,VALID,0,VALID,19.6623,VALID,19,VALID,0.486719,
2010-10-20, 01:58:04,VALID,916.999,VALID,0,VALID,95.4833,VALID,0,VALID,19.6623,VALID,19,VALID,1.31328,
2010-10-20, 01:59:04,VALID,917.041,VALID,0,VALID,95.3918,VALID,0,VALID,19.6818,VALID,19,VALID,0.459766,
2010-10-20, 02:00:04,VALID,917.022,VALID,0,VALID,95.2317,VALID,0,VALID,19.7013,VALID,19,VALID,0,
2010-10-20, 02:01:04,VALID,917.003,VALID,0,VALID,95.0259,VALID,0,VALID,19.7028,VALID,19,VALID,0.261328,
2010-10-20, 02:02:04,VALID,916.996,VALID,0,VALID,94.881,VALID,0,VALID,19.7028,VALID,19,VALID,1.16133,
2010-10-20, 02:03:04,VALID,917.007,VALID,0,VALID,95.0411,VALID,0,VALID,19.7208,VALID,19,VALID,0.98125,
2010-10-20, 02:04:04,VALID,917.016,VALID,0,VALID,95.003,VALID,0,VALID,19.7403,VALID,19,VALID,0.669141,
2010-10-20, 02:05:04,VALID,917.015,VALID,0,VALID,94.8734,VALID,0.107441,VALID,19.7403,VALID,19,VALID,0.625391,
2010-10-20, 02:06:04,VALID,916.992,VALID,0,VALID,94.7743,VALID,0,VALID,19.7808,VALID,19,VALID,0.171484,
2010-10-20, 02:07:04,VALID,916.968,VALID,0,VALID,94.5685,VALID,0,VALID,19.7403,VALID,19,VALID,0,
2010-10-20, 02:08:04,VALID,916.953,VALID,0,VALID,94.538,VALID,0,VALID,19.7598,VALID,19,VALID,0.501562,
2010-10-20, 02:09:04,VALID,916.945,VALID,0,VALID,94.4541,VALID,0,VALID,19.7208,VALID,19,VALID,0.646484,
2010-10-20, 02:10:04,VALID,916.939,VALID,0,VALID,94.82,VALID,0.107441,VALID,19.7403,VALID,19,VALID,0.633984,
2010-10-20, 02:11:04,VALID,916.907,VALID,0,VALID,95.0792,VALID,0,VALID,19.7403,VALID,19,VALID,0.351172,
2010-10-20, 02:12:04,VALID,916.891,VALID,0,VALID,95.1555,VALID,0,VALID,19.7208,VALID,19,VALID,0.517969,
2010-10-20, 02:13:04,VALID,916.907,VALID,0,VALID,95.1707,VALID,0,VALID,19.7013,VALID,19,VALID,0.906641,
2010-10-20, 02:14:04,VALID,916.933,VALID,0,VALID,95.1402,VALID,0,VALID,19.7208,VALID,19,VALID,0.340625,
2010-10-20, 02:15:04,VALID,916.929,VALID,0,VALID,95.0564,VALID,0,VALID,19.7613,VALID,19,VALID,0.132031,
2010-10-20, 02:16:04,VALID,916.958,VALID,0,VALID,94.8505,VALID,0,VALID,19.7598,VALID,19,VALID,0.426172,
2010-10-20, 02:17:04,VALID,916.973,VALID,0,VALID,94.8048,VALID,0,VALID,19.7793,VALID,19,VALID,0.00859375,
2010-10-20, 02:18:04,VALID,916.962,VALID,0,VALID,94.6905,VALID,0,VALID,19.7793,VALID,19,VALID,0.122656,
2010-10-20, 02:19:04,VALID,916.965,VALID,0,VALID,94.4846,VALID,0,VALID,19.7793,VALID,19,VALID,0.104297,
2010-10-20, 02:20:04,VALID,916.995,VALID,0,VALID,94.2864,VALID,0,VALID,19.7793,VALID,19,VALID,0,
2010-10-20, 02:21:04,VALID,917.005,VALID,0,VALID,94.1873,VALID,0,VALID,19.7808,VALID,19,VALID,0.124609,
2010-10-20, 02:22:04,VALID,916.99,VALID,0,VALID,94.5151,VALID,0,VALID,19.8198,VALID,19,VALID,0.442969,
2010-10-20, 02:23:04,VALID,916.977,VALID,0,VALID,94.4922,VALID,0,VALID,19.7793,VALID,19,VALID,0.157813,
2010-10-20, 02:24:04,VALID,916.959,VALID,0,VALID,94.2559,VALID,0,VALID,19.7988,VALID,19,VALID,0.0621094,
2010-10-20, 02:25:04,VALID,916.944,VALID,0,VALID,94.1263,VALID,0,VALID,19.8183,VALID,19,VALID,0,
2010-10-20, 02:26:04,VALID,916.922,VALID,0,VALID,93.7147,VALID,0,VALID,19.7808,VALID,19,VALID,0.583594,
2010-10-20, 02:27:04,VALID,916.931,VALID,0,VALID,93.5393,VALID,0,VALID,19.7403,VALID,19,VALID,0.273438,
2010-10-20, 02:28:04,VALID,916.94,VALID,0,VALID,93.7375,VALID,0,VALID,19.7013,VALID,19,VALID,0,
2010-10-20, 02:29:04,VALID,916.934,VALID,0,VALID,94.0348,VALID,0,VALID,19.7403,VALID,19,VALID,0,
2010-10-20, 02:30:04,VALID,916.942,VALID,0,VALID,94.294,VALID,0,VALID,19.7598,VALID,19,VALID,0.165625,
2010-10-20, 02:31:04,VALID,916.923,VALID,0,VALID,94.3931,VALID,0,VALID,19.7403,VALID,19,VALID,0.0277344,
2010-10-20, 02:32:04,VALID,916.939,VALID,0,VALID,94.3779,VALID,0,VALID,19.7403,VALID,19,VALID,0,
2010-10-20, 02:33:04,VALID,916.928,VALID,0,VALID,93.2572,VALID,0,VALID,19.6428,VALID,19,VALID,0,
2010-10-20, 02:34:04,VALID,916.928,VALID,0,VALID,93.0667,VALID,0,VALID,19.5843,VALID,19,VALID,0.455078,
2010-10-20, 02:35:04,VALID,916.942,VALID,0,VALID,93.4859,VALID,0,VALID,19.5453,VALID,19,VALID,0.164844,
2010-10-20, 02:36:04,VALID,916.906,VALID,0,VALID,93.9662,VALID,0,VALID,19.5063,VALID,19,VALID,0.249219,
2010-10-20, 02:37:04,VALID,916.931,VALID,0,VALID,94.6447,VALID,0,VALID,19.5258,VALID,19,VALID,0.58125,
2010-10-20, 02:38:04,VALID,916.883,VALID,0,VALID,94.3779,VALID,0,VALID,19.4868,VALID,19,VALID,0.426172,
2010-10-20, 02:39:04,VALID,916.853,VALID,0,VALID,94.1873,VALID,0,VALID,19.4478,VALID,19,VALID,0.375781,
2010-10-20, 02:40:04,VALID,916.864,VALID,0,VALID,94.1644,VALID,0,VALID,19.3503,VALID,19,VALID,0.504687,
2010-10-20, 02:41:04,VALID,916.844,VALID,0,VALID,94.6142,VALID,0,VALID,19.3893,VALID,19,VALID,0.526563,
2010-10-20, 02:42:04,VALID,916.795,VALID,0,VALID,94.7667,VALID,0,VALID,19.3503,VALID,19,VALID,0.399609,
2010-10-20, 02:43:04,VALID,916.801,VALID,0,VALID,95.1174,VALID,0,VALID,19.3893,VALID,19,VALID,0.730469,
2010-10-20, 02:44:04,VALID,916.759,VALID,0,VALID,95.1479,VALID,0,VALID,19.4088,VALID,19,VALID,1.00391,
2010-10-20, 02:45:04,VALID,916.751,VALID,0,VALID,94.8429,VALID,0,VALID,19.3893,VALID,19,VALID,0.994922,
2010-10-20, 02:46:04,VALID,916.741,VALID,0,VALID,94.8582,VALID,0,VALID,19.3698,VALID,19,VALID,0.949219,
2010-10-20, 02:47:04,VALID,916.748,VALID,0,VALID,94.8734,VALID,0,VALID,19.3503,VALID,19,VALID,0.708594,
2010-10-20, 02:48:04,VALID,916.696,VALID,0,VALID,95.0183,VALID,0,VALID,19.3893,VALID,19,VALID,0.752344,
2010-10-20, 02:49:04,VALID,916.718,VALID,0,VALID,94.8734,VALID,0.107441,VALID,19.3698,VALID,19,VALID,0.785156,
2010-10-20, 02:50:04,VALID,916.704,VALID,0,VALID,94.881,VALID,0,VALID,19.3713,VALID,19,VALID,0.783594,
2010-10-20, 02:51:04,VALID,916.742,VALID,0,VALID,94.4389,VALID,0,VALID,19.2918,VALID,19,VALID,0.7875,
2010-10-20, 02:52:04,VALID,916.753,VALID,0,VALID,94.7438,VALID,0.107441,VALID,19.3113,VALID,19,VALID,0.494922,
2010-10-20, 02:53:04,VALID,916.745,VALID,0,VALID,94.9725,VALID,0,VALID,19.2918,VALID,19,VALID,0.501172,
2010-10-20, 02:54:04,VALID,916.759,VALID,0,VALID,95.2851,VALID,0,VALID,19.3518,VALID,19,VALID,0.776953,
2010-10-20, 02:55:04,VALID,916.754,VALID,0,VALID,95.3918,VALID,0,VALID,19.3503,VALID,19,VALID,0.846484,
2010-10-20, 02:56:04,VALID,916.77,VALID,0,VALID,95.3766,VALID,0,VALID,19.3713,VALID,19,VALID,0.842969,
2010-10-20, 02:57:04,VALID,916.754,VALID,0,VALID,94.7514,VALID,0,VALID,19.2738,VALID,19,VALID,0.678906,
2010-10-20, 02:58:04,VALID,916.738,VALID,0,VALID,94.5304,VALID,0,VALID,19.2153,VALID,19,VALID,0.618359,
2010-10-20, 02:59:04,VALID,916.759,VALID,0,VALID,95.0945,VALID,0,VALID,19.2139,VALID,19,VALID,1.01055,
2010-10-20, 03:00:04,VALID,916.771,VALID,0,VALID,95.3232,VALID,0,VALID,19.2153,VALID,19,VALID,0.921094,
2010-10-20, 03:01:04,VALID,916.746,VALID,0,VALID,95.1097,VALID,0,VALID,19.1763,VALID,19,VALID,1.28008,
2010-10-20, 03:02:04,VALID,916.762,VALID,0,VALID,95.3079,VALID,0,VALID,19.1958,VALID,19,VALID,1.61797,
2010-10-20, 03:03:04,VALID,916.776,VALID,0,VALID,95.3842,VALID,0,VALID,19.1958,VALID,19,VALID,1.55313,
2010-10-20, 03:04:04,VALID,916.768,VALID,0,VALID,95.3918,VALID,0,VALID,19.2153,VALID,19,VALID,1.30898,
2010-10-20, 03:05:04,VALID,916.742,VALID,0,VALID,95.2317,VALID,0,VALID,19.2139,VALID,19,VALID,0.958594,
2010-10-20, 03:06:04,VALID,916.74,VALID,0,VALID,95.5519,VALID,0,VALID,19.2348,VALID,19,VALID,1.30117,
2010-10-20, 03:07:04,VALID,916.71,VALID,0,VALID,95.4833,VALID,0,VALID,19.2348,VALID,19,VALID,1.7957,
2010-10-20, 03:08:04,VALID,916.688,VALID,0,VALID,95.3689,VALID,0,VALID,19.2153,VALID,19,VALID,1.19219,
2010-10-20, 03:09:04,VALID,916.633,VALID,0,VALID,95.5138,VALID,0,VALID,19.2334,VALID,18,VALID,1.01602,
2010-10-20, 03:10:04,VALID,916.664,VALID,0,VALID,95.6053,VALID,0,VALID,19.2543,VALID,18,VALID,1.33867,
2010-10-20, 03:11:04,VALID,916.588,VALID,0,VALID,95.529,VALID,0,VALID,19.2139,VALID,18,VALID,0.941797,
2010-10-20, 03:12:04,VALID,916.583,VALID,0,VALID,95.4299,VALID,0,VALID,19.1763,VALID,18,VALID,1.05352,
2010-10-20, 03:13:04,VALID,916.572,VALID,0,VALID,95.7044,VALID,0,VALID,19.1944,VALID,18,VALID,1.20195,
2010-10-20, 03:14:04,VALID,916.606,VALID,0,VALID,95.7272,VALID,0,VALID,19.1749,VALID,18,VALID,1.68242,
2010-10-20, 03:15:04,VALID,916.621,VALID,0,VALID,95.6281,VALID,0,VALID,19.1958,VALID,18,VALID,1.33711,
2010-10-20, 03:16:04,VALID,916.617,VALID,0,VALID,95.6129,VALID,0,VALID,19.2543,VALID,17,VALID,1.54336,
2010-10-20, 03:17:04,VALID,916.582,VALID,0,VALID,95.3537,VALID,0,VALID,19.2933,VALID,17,VALID,1.21758,
2010-10-20, 03:18:04,VALID,916.635,VALID,0,VALID,95.003,VALID,0,VALID,19.2933,VALID,17,VALID,1.13398,
2010-10-20, 03:19:04,VALID,916.612,VALID,0,VALID,94.7667,VALID,0,VALID,19.3713,VALID,16,VALID,1.4375,
2010-10-20, 03:20:04,VALID,916.654,VALID,0,VALID,94.1644,VALID,0,VALID,19.3713,VALID,16,VALID,1.11133,
2010-10-20, 03:21:04,VALID,916.662,VALID,0,VALID,94.2178,VALID,0,VALID,19.4103,VALID,16,VALID,0.958594,
2010-10-20, 03:22:04,VALID,916.679,VALID,0,VALID,94.0653,VALID,0,VALID,19.4283,VALID,16,VALID,0.723828,
2010-10-20, 03:23:04,VALID,916.676,VALID,0,VALID,93.3792,VALID,0,VALID,19.4103,VALID,16,VALID,0.637891,
2010-10-20, 03:24:04,VALID,916.671,VALID,0,VALID,93.1048,VALID,0,VALID,19.3323,VALID,16,VALID,0.817969,
2010-10-20, 03:25:04,VALID,916.673,VALID,0,VALID,93.8519,VALID,0,VALID,19.2918,VALID,16,VALID,1.0668,
2010-10-20, 03:26:04,VALID,916.674,VALID,0,VALID,94.0501,VALID,0,VALID,19.2528,VALID,16,VALID,0.903516,
2010-10-20, 03:27:04,VALID,916.66,VALID,0,VALID,93.7909,VALID,0,VALID,19.2348,VALID,16,VALID,0.778906,
2010-10-20, 03:28:04,VALID,916.665,VALID,0,VALID,93.9662,VALID,0,VALID,19.2153,VALID,16,VALID,0.647656,
2010-10-20, 03:29:04,VALID,916.643,VALID,0,VALID,94.0577,VALID,0,VALID,19.2153,VALID,16,VALID,0.510547,
2010-10-20, 03:30:04,VALID,916.657,VALID,0,VALID,94.4008,VALID,0,VALID,19.2348,VALID,16,VALID,0.835938,
2010-10-20, 03:31:04,VALID,916.638,VALID,0,VALID,94.1644,VALID,0,VALID,19.2348,VALID,16,VALID,0.947656,
2010-10-20, 03:32:04,VALID,916.624,VALID,0,VALID,93.9129,VALID,0,VALID,19.2153,VALID,16,VALID,0.733594,
2010-10-20, 03:33:04,VALID,916.608,VALID,0,VALID,94.0577,VALID,0,VALID,19.1763,VALID,16,VALID,0.735156,
2010-10-20, 03:34:04,VALID,916.61,VALID,0,VALID,94.2407,VALID,0,VALID,19.1958,VALID,16,VALID,0.973437,
2010-10-20, 03:35:04,VALID,916.643,VALID,0,VALID,94.1721,VALID,0,VALID,19.1749,VALID,16,VALID,0.614062,
2010-10-20, 03:36:04,VALID,916.625,VALID,0,VALID,94.4541,VALID,0,VALID,19.1958,VALID,16,VALID,0.776172,
2010-10-20, 03:37:04,VALID,916.619,VALID,0,VALID,93.9129,VALID,0,VALID,19.1359,VALID,16,VALID,0.448828,
2010-10-20, 03:38:04,VALID,916.654,VALID,0,VALID,94.355,VALID,0,VALID,19.1763,VALID,16,VALID,0.363281,
2010-10-20, 03:39:04,VALID,916.641,VALID,0,VALID,94.66,VALID,0,VALID,19.1749,VALID,16,VALID,0.391406,
2010-10-20, 03:40:04,VALID,916.641,VALID,0,VALID,94.8124,VALID,0,VALID,19.2139,VALID,16,VALID,0.309375,
2010-10-20, 03:41:04,VALID,916.686,VALID,0,VALID,94.5304,VALID,0,VALID,19.1749,VALID,16,VALID,0.198437,
2010-10-20, 03:42:04,VALID,916.669,VALID,0,VALID,94.0958,VALID,0,VALID,19.2153,VALID,16,VALID,0.226953,
2010-10-20, 03:43:04,VALID,916.673,VALID,0,VALID,94.416,VALID,0,VALID,19.2543,VALID,16,VALID,0.691797,
2010-10-20, 03:44:04,VALID,916.675,VALID,0,VALID,94.3779,VALID,0,VALID,19.2918,VALID,16,VALID,0.276563,
2010-10-20, 03:45:04,VALID,916.716,VALID,0,VALID,94.4008,VALID,0,VALID,19.3308,VALID,16,VALID,0.614844,
2010-10-20, 03:46:04,VALID,916.696,VALID,0,VALID,94.9039,VALID,0,VALID,19.3908,VALID,16,VALID,0.459375,